Regional Weather Roundup
Issued by NWS

Home | Current Version | Previous Version | Text Only | Print | Product List | Glossary On
Versions: 1 2 3 4 5 6 7 8 9 10 11 12 13 14 15 16 17 18 19 20 21 22 23 24 25 26 27 28 29 30 31 32 33 34 35 36 37 38 39 40 41 42 43 44 45 46 47 48 49 50
000
ASUS43 KBIS 251210
RWRND
NORTH DAKOTA REGIONAL WEATHER ROUNDUP
NATIONAL WEATHER SERVICE EASTERN NORTH DAKOTA/GRAND FORKS ND
700 AM CDT WED APR 25 2018

  NOTE: "FAIR" INDICATES FEW OR NO CLOUDS BELOW 12,000 FEET WITH NO
  SIGNIFICANT WEATHER AND/OR OBSTRUCTIONS TO VISIBILITY.

NDZ001>003-009>011-017-251300-
...NORTHWEST NORTH DAKOTA...

CITY           SKY/WX    TMP DP  RH WIND       PRES   REMARKS
WILLISTON      FAIR      39  28  64 S5        30.09F
6HR MIN TEMP:  36; 6HR MAX TEMP:  46;

MINOT          FAIR      41  30  65 SW10      30.10F
MINOT AFB      FAIR      40  30  65 SW12      30.08F WCI  34
6HR MIN TEMP:  40; 6HR MAX TEMP:  44;

$$

NDZ018>021-031>035-040>046-251300-
...SOUTHWEST NORTH DAKOTA...

CITY           SKY/WX    TMP DP  RH WIND       PRES   REMARKS
BISMARCK       FAIR      30  26  85 CALM      30.22F
DICKINSON      FAIR      33  28  81 SW14      30.14F WCI  23
GARRISON         N/A     34  29  82 SW8       30.15F WCI  27
HETTINGER      FAIR      28  23  81 SW3       30.23F
$$

NDZ004>008-012>016-024-026-027-054-251300-
...NORTHEAST NORTH DAKOTA...

CITY           SKY/WX    TMP DP  RH WIND       PRES   REMARKS
GRAND FORKS    FAIR      33  30  88 S9        30.19F WCI  25
GRAND FORKS AF FAIR      38  30  71 S10       30.17F WCI  32
DEVILS LAKE    FAIR      35  28  75 SW10      30.15F WCI  27
$$

NDZ022-023-025-028>030-036>039-047>053-251300-
...SOUTHEAST NORTH DAKOTA...

CITY           SKY/WX    TMP DP  RH WIND       PRES   REMARKS
JAMESTOWN      FAIR      33  28  81 SW8       30.21F WCI  26
FARGO          FAIR      32  28  85 S8        30.26F WCI  25
WAHPETON       FAIR      30  27  86 CALM      30.29S
$$




USA.gov is the U.S. government's official web portal to all federal, state and local government web resources and services.